Total_Precipitation_Accumulation
0.00 0.00 0.01 0.01 0.01 0.03 0.03 0.02 0.02 0.01 0.01 0.01 0.02 0.02 0.02 0.01 0.00 0.00 0.01 0.01 0.01 0.02 0.03 0.04 0.04 0.03 0.03 0.03 0.02 0.01 0.00 0.00 0.00 0.00 0.01 0.01 0.02 0.04 0.04 0.03 0.08 0.09 0.03
0.00 0.00 0.01 0.01 0.02 0.04 0.05 0.05 0.04 0.02 0.01 0.01 0.01 0.02 0.02 0.01 0.01 0.00 0.00 0.01 0.01 0.01 0.02 0.03 0.02 0.01 0.01 0.01 0.01 0.01 0.01 0.00 0.00 0.00 0.01 0.01 0.02 0.04 0.05 0.03 0.06 0.06 0.02
0.00 0.00 0.00 0.01 0.01 0.03 0.05 0.06 0.06 0.05 0.02 0.01 0.01 0.04 0.06 0.03 0.01 0.00 0.00 0.00 0.00 0.00 0.00 0.01 0.01 0.01 0.00 0.00 0.00 0.01 0.01 0.01 0.00 0.01 0.03 0.05 0.02 0.04 0.06 0.02 0.01 0.01 0.01
0.00 0.00 0.00 0.00 0.01 0.02 0.03 0.05 0.07 0.07 0.03 0.02 0.04 0.06 0.07 0.05 0.01 0.01 0.01 0.00 0.00 0.00 0.00 0.00 0.01 0.01 0.00 0.00 0.00 0.00 0.00 0.00 0.00 0.01 0.05 0.12 0.07 0.05 0.06 0.05 0.02 0.01 0.01
0.00 0.00 0.01 0.01 0.01 0.02 0.02 0.03 0.07 0.09 0.07 0.05 0.08 0.09 0.07 0.06 0.04 0.02 0.02 0.03 0.02 0.00 0.00 0.00 0.01 0.01 0.00 0.00 0.00 0.00 0.00 0.00 0.01 0.01 0.02 0.07 0.14 0.10 0.09 0.12 0.10 0.08 0.05
0.00 0.00 0.00 0.02 0.02 0.02 0.02 0.02 0.04 0.09 0.09 0.07 0.09 0.11 0.09 0.11 0.12 0.07 0.03 0.04 0.05 0.02 0.01 0.01 0.00 0.00 0.01 0.01 0.00 0.00 0.00 0.00 0.01 0.01 0.02 0.03 0.16 0.21 0.17 0.28 0.30 0.24 0.17
0.00 0.00 0.00 0.02 0.02 0.01 0.02 0.03 0.04 0.05 0.06 0.05 0.05 0.05 0.05 0.08 0.15 0.11 0.07 0.05 0.05 0.03 0.02 0.01 0.01 0.01 0.01 0.01 0.01 0.01 0.01 0.00 0.01 0.02 0.02 0.02 0.08 0.12 0.20 0.40 0.50 0.47 0.39
0.00 0.00 0.00 0.01 0.01 0.01 0.01 0.02 0.04 0.04 0.02 0.02 0.01 0.01 0.01 0.02 0.04 0.06 0.07 0.06 0.04 0.02 0.02 0.01 0.01 0.01 0.02 0.03 0.03 0.02 0.03 0.02 0.01 0.03 0.02 0.04 0.08 0.11 0.29 0.49 0.59 0.60 0.57
0.00 0.00 0.00 0.01 0.01 0.01 0.01 0.01 0.02 0.02 0.02 0.01 0.01 0.01 0.01 0.01 0.03 0.05 0.05 0.05 0.06 0.05 0.03 0.02 0.02 0.03 0.03 0.03 0.02 0.02 0.02 0.02 0.02 0.03 0.04 0.11 0.24 0.29 0.50 0.63 0.63 0.65 0.65
0.00 0.00 0.00 0.01 0.01 0.01 0.01 0.01 0.02 0.02 0.02 0.01 0.01 0.01 0.01 0.01 0.02 0.04 0.04 0.05 0.07 0.08 0.06 0.04 0.04 0.04 0.04 0.03 0.02 0.03 0.03 0.02 0.01 0.01 0.03 0.09 0.21 0.38 0.56 0.64 0.68 0.70 0.70
0.00 0.01 0.00 0.01 0.01 0.01 0.01 0.01 0.01 0.01 0.02 0.02 0.02 0.03 0.03 0.02 0.05 0.11 0.10 0.14 0.14 0.15 0.16 0.14 0.12 0.11 0.10 0.06 0.07 0.12 0.07 0.02 0.01 0.01 0.02 0.11 0.22 0.41 0.59 0.62 0.67 0.75 0.79
0.00 0.01 0.01 0.01 0.01 0.01 0.01 0.01 0.01 0.01 0.02 0.01 0.04 0.10 0.14 0.18 0.14 0.07 0.14 0.25 0.35 0.46 0.42 0.38 0.38 0.28 0.22 0.17 0.43 0.66 0.17 0.06 0.06 0.06 0.05 0.11 0.29 0.58 0.71 0.66 0.64 0.69 0.70
0.01 0.01 0.01 0.01 0.01 0.01 0.01 0.00 0.01 0.01 0.03 0.03 0.04 0.09 0.15 0.14 0.09 0.04 0.09 0.24 0.40 0.52 0.46 0.61 0.69 0.56 0.54 0.49 0.55 0.63 0.27 0.21 0.17 0.14 0.16 0.23 0.39 0.68 0.87 0.71 0.62 0.59 0.56
0.03 0.03 0.02 0.01 0.02 0.01 0.01 0.02 0.02 0.03 0.03 0.03 0.05 0.07 0.11 0.14 0.13 0.15 0.22 0.29 0.37 0.42 0.59 0.57 0.68 0.68 0.59 0.54 0.55 0.54 0.46 0.42 0.35 0.38 0.44 0.34 0.39 0.61 0.88 0.76 0.62 0.56 0.58
0.06 0.08 0.08 0.06 0.05 0.05 0.05 0.06 0.07 0.08 0.09 0.09 0.10 0.13 0.18 0.24 0.30 0.38 0.35 0.37 0.34 0.44 0.60 0.63 0.58 0.71 0.82 0.76 0.65 0.61 0.62 0.60 0.52 0.56 0.55 0.45 0.43 0.53 0.74 0.79 0.70 0.66 0.65
0.15 0.18 0.22 0.23 0.24 0.25 0.26 0.26 0.25 0.25 0.28 0.28 0.30 0.31 0.38 0.43 0.55 0.62 0.60 0.60 0.54 0.60 0.71 0.76 0.76 1.04 1.00 0.95 0.79 0.72 0.69 0.65 0.60 0.54 0.49 0.47 0.43 0.41 0.49 0.64 0.73 0.70 0.69
0.39 0.39 0.46 0.54 0.60 0.62 0.60 0.57 0.59 0.65 0.64 0.58 0.58 0.62 0.67 0.69 0.84 0.91 0.93 0.86 0.88 0.89 0.98 0.99 1.08 1.19 0.97 0.92 0.78 0.73 0.65 0.59 0.51 0.48 0.49 0.52 0.50 0.42 0.34 0.40 0.54 0.62 0.68
0.69 0.73 0.89 1.01 1.05 1.07 1.05 1.03 1.04 0.99 0.90 0.82 0.88 0.96 0.96 0.98 1.12 1.18 1.06 1.00 1.22 1.29 1.32 1.37 1.41 1.37 1.25 1.13 0.92 0.72 0.59 0.58 0.42 0.34 0.33 0.35 0.39 0.31 0.30 0.39 0.48 0.54 0.65
1.25 1.38 1.51 1.57 1.55 1.49 1.47 1.47 1.47 1.38 1.19 1.04 1.05 1.09 1.15 1.12 1.19 1.29 1.14 1.18 1.38 1.46 1.50 1.41 1.58 1.51 1.44 1.35 1.08 0.82 0.60 0.48 0.36 0.27 0.21 0.19 0.23 0.24 0.22 0.27 0.33 0.38 0.57
1.62 1.84 1.95 1.96 2.10 2.16 2.11 1.98 1.89 1.65 1.39 1.27 1.29 1.31 1.28 1.22 1.27 1.42 1.29 1.33 1.49 1.57 1.53 1.56 1.59 1.59 1.48 1.42 1.11 0.80 0.60 0.42 0.30 0.22 0.18 0.15 0.14 0.14 0.16 0.21 0.31 0.31 0.45
1.94 2.17 2.37 2.78 2.89 2.78 2.53 2.19 1.96 1.78 1.70 1.57 1.44 1.33 1.28 1.24 1.28 1.44 1.34 1.42 1.44 1.40 1.43 1.58 1.68 1.50 1.34 1.50 1.25 0.74 0.46 0.33 0.27 0.24 0.24 0.24 0.19 0.16 0.17 0.21 0.25 0.32 0.39
2.09 2.38 2.41 2.35 2.47 2.52 2.40 2.26 2.20 2.21 1.94 1.71 1.58 1.39 1.29 1.31 1.34 1.31 1.29 1.25 1.25 1.34 1.40 1.47 1.66 1.47 1.16 1.34 1.30 1.04 0.57 0.41 0.36 0.27 0.29 0.30 0.25 0.22 0.22 0.24 0.29 0.41 0.43
1.55 1.73 1.84 1.87 1.78 1.76 1.82 1.94 1.97 2.00 1.79 1.60 1.50 1.43 1.34 1.29 1.21 1.18 1.16 1.25 1.40 1.46 1.35 1.37 1.45 1.38 1.12 1.12 1.25 1.30 0.89 0.61 0.44 0.23 0.24 0.28 0.35 0.41 0.36 0.37 0.38 0.44 0.49
1.30 1.40 1.42 1.44 1.43 1.45 1.56 1.65 1.64 1.62 1.52 1.47 1.47 1.37 1.29 1.22 1.16 1.12 1.12 1.13 1.14 1.15 1.13 1.06 1.15 1.26 1.22 1.06 1.16 1.22 1.16 1.02 0.82 0.45 0.32 0.34 0.45 0.49 0.49 0.45 0.39 0.39 0.52
0.97 1.08 1.17 1.24 1.24 1.25 1.28 1.32 1.35 1.33 1.33 1.35 1.28 1.20 1.12 1.07 1.09 1.06 0.99 0.96 0.89 0.89 0.95 0.97 1.01 1.07 1.09 1.06 1.07 1.14 1.16 1.17 1.17 0.98 0.62 0.59 0.59 0.50 0.53 0.51 0.46 0.47 0.56
0.87 0.97 1.04 1.10 1.11 1.11 1.13 1.15 1.15 1.15 1.16 1.15 1.11 1.10 1.05 1.00 0.93 0.90 0.91 0.90 0.87 0.88 0.92 0.94 0.94 0.89 0.93 0.98 1.03 1.09 1.12 1.12 1.20 1.27 1.00 0.85 0.73 0.60 0.62 0.56 0.52 0.53 0.60